Weather Roundup
Issued by NWS Chicago, IL

Home | Current Version | Previous Version | Graphics & Text | Print | Product List | Glossary On
Versions: 1 2 3 4 5 6 7 8 9 10 11 12 13 14 15 16 17 18 19 20 21 22 23 24 25 26 27 28 29 30 31 32 33 34 35 36 37 38 39 40 41 42 43 44 45 46 47 48 49 50
000
NZUS59 KLOT 241903
HRRLOT

CHICAGO AREA WEATHER ROUNDUP
NATIONAL WEATHER SERVICE CHICAGO/ROMEOVILLE IL
200 PM CDT SUN JUL 24 2016

NOTE: "FAIR" INDICATES FEW OR NO CLOUDS BELOW 12,000 FEET WITH NO
SIGNIFICANT WEATHER AND/OR OBSTRUCTIONS TO VISIBILITY.

* THESE STATIONS ARE NOT UNDER NWS QUALITY CONTROL. THEY ALSO MAY NOT
  REPORT WEATHER SUCH AS PRECIPITATION OR FOG.

ILZ005-006-012>014-019>023-242000-
NORTHEAST ILLINOIS

CITY           SKY/WX    TMP DP  RH WIND       PRES   REMARKS
OHARE          PTSUNNY   91  77  63 S17G24    29.86F HX 104
MIDWAY         PTSUNNY   92  78  63 S18G24    29.87F HX 107
AURORA         MOSUNNY   92  81  70 S16       29.87F HX 112
LANSING*       CLOUDY    89  77  68 S14       29.90F HX 101
WAUKEGAN       CLOUDY    94  78  60 S20       29.84F HX 110
DUPAGE AIRPORT MOSUNNY   92  79  65 S16G24    29.86F HX 108
WHEELING       PTSUNNY   91  76  61 SW16G23   29.86F HX 103
MORRIS*        MOSUNNY   90  80  73 S15       29.87F HX 106
NORTHERLY ISL    N/A     89  74  60 S15         N/A  HX  98
$$

WIZ051-052-058>065-066-070>072-242000-
SOUTHEAST WISCONSIN

CITY           SKY/WX    TMP DP  RH WIND       PRES   REMARKS
MILWAUKEE      PTSUNNY   91  78  65 SW20      29.82F HX 106
KENOSHA*       CLOUDY    93  78  61 SW16G22   29.84F HX 108
RACINE*        CLOUDY    88  75  65 SE9       29.85F HX  97
BURLINGTON     PTSUNNY   93  83  74 SW15G21   29.84F HX 118
WAUKESHA       PTSUNNY   88  75  66 SW12      29.85F HX  97
$$

INZ001>003-010>013-019-020-242000-
NORTHWEST INDIANA

CITY           SKY/WX    TMP DP  RH WIND       PRES   REMARKS
GARY*          PTSUNNY   90 N/A N/A S14       29.91F
MICHIGAN CITY* NOT AVBL
RENSSELAER*    NOT AVBL
VALPARAISO     CLOUDY    88  76  67 S15G21    29.93F HX  99
$$

LMZ740>746-242000-
SOUTHERN LAKE MICHIGAN

STATION/POSITION TIME  SKY/WX   TEMP WIND        PRES    VSBY
                                AIR  DIR/SP/G
                 (UTC)          (F)  (DEG/KT/KT) (MB)    (MI)
HARRISON CRIB    1800            86  190/ 16/ 18   N/A
BURNHAM HARBOR   1900            90  200/ 15/ 20   N/A
CALUMET HARBOR   1800            88  180/ 10/ 15 1011.9F
BURNS HARBOR     1800            87  190/ 16/ 18 1013.5S
MICHIGAN CITY    1800            86  170/ 13/ 16   N/A
$$

ABBREVIATIONS USED IN REMARKS
   TC - TEMPERATURE IN CELSIUS
  WCI - WIND CHILL INDEX
   HX - HEAT INDEX
  VSB - VISIBILITY
$$




USA.gov is the U.S. government's official web portal to all federal, state and local government web resources and services.